Location: Eigenrode
(51.2926°N, 10.4466°E)
Time: 07:01:53
(UTC+00:00)

Daily predictions for brighter satellites

Satellite Brightness Start Highest point End
(mag) Time Altitude Azimuth Time Altitude Azimuth Time Altitude Azimuth
CARTOSAT-1 3.7 20:14:18 10° S 20:18:37 77° WSW 20:22:57 10° NNW
IRAS Rocket 4.3 20:13:25 10° NNE 20:19:04 72° ESE 20:24:37 10° S
Cosmos 1656 4.0 20:15:05 10° NNW 20:20:29 58° NE 20:25:55 10° SE
Cosmos 2084 3.5 20:18:20 10° SSW 20:21:58 43° SE 20:25:39 10° NE
USA 276 3.1 20:27:12 10° SSW 20:29:41 24° SSE 20:32:11 10° E
ATLAS 2AS CENTAUR R/B 2.9 20:23:48 10° NW 20:30:59 73° SW 20:37:38 10° SSE
Spot 2 Rocket 3.6 20:26:39 10° SSE 20:31:45 82° ENE 20:36:53 10° NNW
Cosmos 1544 Rocket 3.6 20:28:21 10° N 20:32:42 88° WSW 20:37:02 10° S
Meteor 1-24 Rocket 3.6 20:29:21 10° S 20:34:40 87° ESE 20:40:09 10° NNE
Lacrosse 5 2.2 20:30:47 10° WNW 20:35:49 59° SW 20:40:50 10° SE
USA 234 3.6 20:29:58 10° E 20:36:29 69° NNE 20:43:01 10° WNW
Cosmos 1371 Rocket 4.1 20:31:51 10° SSW 20:37:05 87° WNW 20:42:26 10° NNE
Cosmos 1452 Rocket 4.3 20:33:12 10° SSE 20:37:52 34° ESE 20:42:34 10° NE
X-37B 1.9 20:37:23 10° SW 20:39:27 19° SSE 20:41:31 10° ESE
Cosmos 1833 Rocket 3.9 20:36:45 10° SSE 20:41:06 24° ESE 20:45:28 10° NE
Terra 1.9 20:38:21 10° SSE 20:43:06 72° ENE 20:47:52 10° N
Cosmos 2184 Rocket 4.1 20:39:20 10° N 20:45:31 68° ENE 20:51:40 10° SSE
FALCON 9 DEB 3.2 20:42:27 10° W 20:45:43 73° N 20:48:59 10° ENE
Resurs 01 Rocket 3.8 20:46:37 10° SW 20:50:04 22° W 20:53:33 10° NW
Cosmos 724 4.3 20:47:20 10° SSW 20:53:00 58° ESE 20:58:42 10° NE
CZ-4B R/B 3.6 20:52:20 10° NNW 20:54:41 22° WNW 20:57:01 10° WSW
Helios 1A Rocket 3.3 20:51:56 10° S 20:55:58 62° WSW 21:00:03 10° NNW
Cosmos 1624 Rocket 4.4 20:52:14 10° SW 20:57:27 67° WNW 21:02:39 10° NNE
Lacrosse 5 rocket 2.9 20:55:41 10° W 20:58:43 22° SW 21:01:52 10° S
Cosmos 1271 Rocket 3.6 20:56:09 10° NNW 21:00:00 47° W 21:03:47 10° S
Cosmos 2082 Rocket 3.9 21:01:01 11° SE 21:04:06 16° E 21:07:25 10° ENE
ERS-1 Rocket 3.4 21:04:04 10° S 21:09:02 58° W 21:14:02 10° NNW
RESURS DK-1 2.4 21:05:32 10° NNW 21:09:42 83° ENE 21:13:07 15° SE
Cosmos 2058 Rocket 4.3 21:10:33 10° N 21:14:26 29° ENE 21:17:48 13° SE
CZ-2C R/B 3.7 21:11:09 10° NNE 21:15:48 88° WNW 21:20:19 10° SSW
Cosmos 1741 Rocket 4.2 21:16:02 10° NNW 21:21:22 75° WSW 21:25:51 15° SSE
ARIANE 5 R/B 2.9 21:18:10 12° S 21:22:12 67° WSW 21:26:39 10° NNW
Cosmos 968 Rocket 4.2 21:17:54 10° NNW 21:22:54 45° ENE 21:27:23 13° SE
Cosmos 1825 4.4 21:24:32 10° ESE 21:25:56 12° E 21:27:21 10° ENE
Cosmos 2344 4.3 21:18:43 10° NW 21:27:19 85° NE 21:38:57 11° SE
SL-8 R/B 3.9 21:24:20 10° W 21:29:01 52° SSW 21:33:28 11° ESE
GP-B 3.8 21:26:38 10° NNE 21:30:51 41° E 21:33:53 17° SSE
Cosmos 1455 4.3 21:27:59 10° NW 21:30:59 22° W 21:33:58 10° SW
Cosmos 2074 Rocket 4.5 21:27:50 10° NNW 21:33:59 58° W 21:40:05 10° S
ASTEX 1 3.6 21:34:02 10° NNE 21:39:00 58° E 21:42:45 17° SSE
ADEOS Rocket 4.3 21:33:32 11° SE 21:40:03 43° ENE 21:47:12 10° N
COSMOS 2406 3.8 21:37:53 15° S 21:42:10 40° ESE 21:47:31 10° NE
Cosmos 2369 3.9 21:37:47 10° NNW 21:43:33 72° ENE 21:48:09 16° SE
USA 267 3.3 21:37:10 10° ENE 21:43:39 61° SE 21:50:06 10° SW
SL-16 R/B 3.9 21:39:45 10° NNW 21:44:33 27° NE 21:49:21 10° E
Cosmos 2228 3.8 21:44:36 10° NNW 21:48:39 44° W 21:52:05 13° SSW
Cosmos 1980 Rocket 2.3 21:46:27 10° NNW 21:52:11 73° ENE 21:56:37 17° SE
Nadezhda 1 Rocket 4.1 21:47:10 10° SSW 21:53:17 78° WNW 21:59:23 10° N
Cosmos 1606 Rocket 3.9 21:49:29 10° NNW 21:53:46 60° W 21:56:56 17° S
Cosmos 1697 Rocket 2.9 21:49:07 10° NW 21:54:41 63° WSW 21:58:44 19° S
Cosmos 1703 4.4 21:51:58 10° SW 21:55:36 39° WNW 21:59:16 10° N
SJ 16-02 3.7 21:54:35 10° N 21:57:31 17° NE 22:00:26 10° E
Cosmos 1892 3.3 21:55:58 23° SSE 21:57:54 41° E 22:01:28 10° NNE
Cosmos 2084 Rocket 3.2 21:56:08 10° NW 22:00:01 89° NE 22:02:43 20° SE
Meteor 1-11 4.3 21:57:30 18° S 22:01:37 61° E 22:07:08 10° NNE
USA 276 1.9 22:02:05 10° WSW 22:05:04 62° S 22:08:02 10° E
Cosmos 1328 4.1 22:04:04 16° SSW 22:07:14 67° WNW 22:11:15 10° N
Cosmos 1331 Rocket 4.1 22:04:21 10° SSW 22:09:39 81° WNW 22:15:00 10° NNE
X-37B 2.4 22:12:08 10° WSW 22:12:57 15° SW 22:12:57 15° SW
Cosmos 1408 2.3 22:15:25 26° S 22:17:13 83° E 22:20:41 10° NNE
Lacrosse 5 3.9 22:15:13 10° W 22:17:55 14° WSW 22:20:08 11° SSW
SAR-Lupe-4 4.4 22:14:37 10° N 22:18:06 48° WNW 22:21:00 14° SW
Cosmos 1726 Rocket 4.3 22:14:24 10° NNW 22:18:30 44° W 22:21:23 18° SSW
USA 234 3.4 22:14:24 16° SE 22:19:38 60° SW 22:26:08 10° WNW
ATLAS 2AS CENTAUR R/B 4.5 22:16:15 10° WNW 22:20:39 18° WSW 22:24:54 10° SW
Terra 4.0 22:18:12 10° SW 22:21:22 18° W 22:24:34 10° NW
FALCON 9 DEB 3.3 22:18:53 10° WNW 22:22:10 69° N 22:25:25 10° E
Cosmos 2322 Rocket 3.6 22:18:45 10° NNW 22:23:55 34° NE 22:29:04 10° ESE
Cosmos 1833 Rocket 2.9 22:18:55 10° SW 22:24:31 70° WNW 22:30:09 10° NNE
Cosmos 1867 3.5 22:21:56 10° NW 22:27:27 83° SW 22:31:18 20° SE
Cosmos 2278 3.8 22:22:31 10° NNW 22:28:17 82° ENE 22:32:24 20° SSE
SL-8 Rocket 4.1 22:23:07 10° NNW 22:29:23 76° W 22:33:46 20° S
ATLAS 5 CENTAUR R/B 2.9 22:30:25 18° ESE 22:30:47 18° ESE 22:33:35 10° ENE
Cosmos 1812 Rocket 4.2 22:27:24 10° N 22:31:46 48° ENE 22:34:25 22° SE
ALOS 2 2.6 22:32:45 25° SSE 22:35:18 85° ENE 22:39:44 10° NNW
Cosmos 1302 Rocket 3.9 22:31:56 17° SSW 22:35:57 87° ESE 22:41:11 10° NNE
Cosmos 2218 Rocket 4.2 22:35:03 10° NNW 22:41:27 74° W 22:45:53 21° S
Cosmos 2366 rocket 4.2 22:38:55 10° NNW 22:45:12 70° W 22:49:34 21° S
Aureole 1 Rocket 4.4 22:38:50 10° NNW 22:45:35 82° ENE 22:51:53 18° SSE
Cosmos 2082 Rocket 2.2 22:42:49 17° SSW 22:47:19 83° ESE 22:53:03 10° NNE
Cosmos 1602 Rocket 3.9 22:45:32 26° SSE 22:47:41 52° E 22:51:54 10° NNE
H-2A R/B 3.4 22:44:38 10° NNE 22:48:52 79° ESE 22:51:09 26° S
Cosmos 2058 Rocket 4.2 22:48:27 10° NNW 22:52:27 35° W 22:55:04 18° SW
Cosmos 1825 2.3 22:58:49 27° SSW 23:00:43 68° WNW 23:04:28 10° N
Cosmos 2360 Rocket 3.3 22:58:09 10° NNW 23:03:33 41° NE 23:08:54 10° ESE
ERS-2 2.3 23:00:57 10° NNE 23:04:30 56° ESE 23:05:53 32° SSE
Cosmos-2242 2.9 23:01:48 10° N 23:06:05 82° E 23:08:16 28° SSE
Cosmos 1626 Rocket 3.8 23:10:22 23° SSW 23:12:54 61° WNW 23:17:14 10° N
Cosmos 1869 4.3 23:11:50 10° NNW 23:15:23 35° W 23:17:08 23° SW
Cosmos 1606 2.7 23:12:37 10° N 23:16:29 75° E 23:18:18 30° SSE
Cosmos 1934 Rocket 4.3 23:11:55 10° N 23:17:56 60° ENE 23:22:23 19° SSE
BREEZE-M DEB (TANK) 4.1 23:14:23 10° W 23:18:02 66° S 23:33:14 10° ESE
Cosmos 2058 3.6 23:16:21 25° SSE 23:18:20 43° E 23:22:20 10° NNE
Cosmos 1825 Rocket 3.8 23:22:58 27° SSE 23:25:07 56° E 23:29:22 10° NNE
ADEOS Rocket 3.8 23:20:28 21° SSW 23:25:20 54° W 23:32:51 10° NNW
COSMOS 2406 4.2 23:20:57 10° WSW 23:26:28 45° NW 23:32:00 10° NNE
Cosmos 1633 2.6 23:25:15 31° SSW 23:26:43 65° WNW 23:30:12 10° N
USA 267 3.6 23:20:17 10° ENE 23:26:47 69° NNW 23:33:16 10° W
CRYOSAT 2 4.5 23:25:28 24° SSE 23:28:25 71° E 23:33:19 10° N
SL-16 R/B 2.2 23:23:35 10° NNW 23:29:17 78° WSW 23:33:08 21° SSE
Cosmos 1980 Rocket 3.7 23:31:17 10° NW 23:35:37 23° WSW 23:38:22 16° SW
SJ 16-02 1.3 23:32:14 10° NNW 23:36:42 84° WSW 23:39:13 25° SSE
USA 276 1.9 23:37:40 10° W 23:40:39 59° S 23:43:37 10° ESE
Meteor 2-2 Rocket 4.4 23:35:46 10° NNW 23:41:47 90° WSW 23:45:55 22° S
Cosmos 1821 Rocket 4.4 23:35:51 10° NNW 23:41:57 54° W 23:45:54 22° SSW
Cosmos 2219 Rocket 3.5 23:38:37 10° NNW 23:43:56 39° NE 23:49:13 10° ESE
CZ-2D R/B 4.0 23:45:57 10° NE 23:49:34 19° E 23:53:11 10° SE
Cosmos 1340 Rocket 3.0 23:48:44 28° SSE 23:50:35 58° E 23:54:29 10° NNE
